Meath Environmental Platform

Observations for Trim Patrick St

Time AQI Temp °C Hum % Pres Pa CO μg/m³ H₂S μg/m³ NO μg/m³ NO₂ μg/m³ O₃ μg/m³ SO₂ μg/m³ PM1 μg/m³ PM2.5 μg/m³ PM10 μg/m³
Thursday 27 August 2026
01:47 3 15.4 87 38,459 0.21 2.37 1.74 21.48 26.59 0 20.86 28.74 30.45
01:46 3 15.4 87 38,459 0.21 1.69 1.82 16.35 31.56 0 21.72 30.11 30.45
01:45 3 15.4 87 38,459 0.2 2.65 1.72 16.9 31.51 0 21.72 28.06 30.87
01:44 3 15.4 87 38,459 0.2 3.69 1.64 21.44 28.58 0 23.43 32.18 32.41
01:43 3 15.4 87 38,459 0.2 2.73 1.3 16.5 28.15 0 21.72 29.43 29.84
01:42 3 15.4 87 38,459 0.21 5.99 1.61 25.72 31.91 0 24.29 31.52 32.48
01:41 3 15.4 87 38,459 0.19 4.87 1.6 31.12 25.6 0 22.57 31.53 31.87
01:40 3 15.4 86 38,459 0.2 2.1 1.8 16.49 30.5 0 20.86 30.21 33.23
01:39 3 15.4 86 38,459 0.21 1.79 1.68 16.95 30.6 0 18.29 27.53 30.28
01:38 3 15.4 86 38,460 0.2 1.74 1.91 16.7 34.84 0 21.72 30.89 31.32
01:36 3 15.4 86 38,460 0.19 1.77 1.56 17.18 30.12 0 21.72 30.88 31.29
01:35 3 15.4 87 38,460 0.2 1.4 1.54 16.57 30.58 0 20.86 30.86 31.26
01:33 3 15.4 87 38,460 0.2 2.5 1.71 18.59 24.71 0 20.86 30.86 33.95
01:32 3 15.4 87 38,460 0.2 2.99 1.95 21.59 25.99 0 20.86 30.18 30.61
01:31 3 15.4 87 38,460 0.19 2.81 2.02 15.39 34.41 0 20.86 30.18 31.26
01:29 3 15.4 86 38,460 0.19 1.77 1.98 19.07 26.85 0 22.57 30.91 31.36
01:26 3 15.4 86 38,460 0.19 3.04 2.19 20.02 24.52 0 22.57 32.27 33.91
01:25 3 15.4 86 38,460 0.2 2.13 2.69 17.93 28.28 0 21.72 30.91 33.3
01:21 3 15.4 86 38,460 0.19 1.48 2.05 15.12 35.32 0 22.57 31.62 32.07
01:19 3 15.4 86 38,460 0.19 0.75 1.89 14.43 35.09 0 20.86 29.55 32.5